QPF
0.00 0.00 0.00 0.00 0.00 0.01 0.00 0.00 0.00 0.00 0.00 0.00 0.00 0.00 0.00 0.00 0.00 0.00 0.00 0.00 0.00 0.00 0.00 0.00 0.00 0.00 0.00 0.00 0.00 0.00 0.00 0.00 0.01 0.04 0.01 0.00 0.00 0.00 0.00 0.00 0.00 0.00 0.00 0.00 0.00
0.01 0.01 0.01 0.00 0.00 0.00 0.00 0.00 0.00 0.00 0.00 0.00 0.00 0.00 0.00 0.00 0.00 0.00 0.00 0.00 0.00 0.00 0.00 0.00 0.00 0.00 0.00 0.00 0.00 0.00 0.00 0.00 0.00 0.00 0.00 0.00 0.00 0.00 0.00 0.00 0.00 0.00 0.00 0.00 0.00
0.01 0.00 0.01 0.01 0.00 0.00 0.00 0.00 0.00 0.00 0.00 0.00 0.00 0.00 0.00 0.00 0.00 0.00 0.00 0.00 0.00 0.00 0.00 0.00 0.00 0.00 0.00 0.00 0.00 0.00 0.00 0.00 0.00 0.00 0.00 0.00 0.00 0.00 0.00 0.00 0.00 0.00 0.00 0.00 0.00
0.01 0.01 0.01 0.01 0.00 0.00 0.00 0.00 0.00 0.00 0.00 0.00 0.00 0.00 0.00 0.00 0.00 0.00 0.00 0.00 0.00 0.00 0.00 0.00 0.00 0.00 0.00 0.00 0.00 0.00 0.00 0.00 0.00 0.00 0.00 0.00 0.00 0.00 0.00 0.00 0.00 0.00 0.00 0.00 0.00
0.01 0.01 0.00 0.00 0.00 0.00 0.00 0.00 0.00 0.00 0.00 0.00 0.00 0.00 0.00 0.00 0.00 0.00 0.00 0.00 0.00 0.00 0.00 0.00 0.00 0.00 0.00 0.00 0.00 0.00 0.00 0.00 0.00 0.00 0.00 0.00 0.00 0.00 0.00 0.00 0.00 0.00 0.00 0.00 0.00
0.01 0.00 0.00 0.00 0.00 0.00 0.00 0.00 0.00 0.00 0.00 0.00 0.00 0.00 0.00 0.00 0.00 0.00 0.00 0.00 0.00 0.00 0.00 0.00 0.00 0.00 0.00 0.00 0.00 0.00 0.00 0.00 0.00 0.00 0.00 0.00 0.00 0.00 0.00 0.00 0.00 0.00 0.00 0.00 0.00
0.00 0.00 0.00 0.00 0.00 0.00 0.00 0.00 0.00 0.00 0.00 0.00 0.00 0.00 0.00 0.00 0.00 0.00 0.00 0.00 0.00 0.00 0.00 0.00 0.00 0.00 0.00 0.00 0.00 0.00 0.00 0.00 0.00 0.00 0.00 0.00 0.00 0.00 0.00 0.00 0.00 0.00 0.00 0.00 0.00
0.00 0.00 0.00 0.00 0.00 0.00 0.00 0.00 0.00 0.00 0.00 0.00 0.00 0.00 0.00 0.00 0.00 0.00 0.00 0.00 0.00 0.00 0.00 0.00 0.00 0.00 0.00 0.00 0.00 0.00 0.00 0.00 0.00 0.00 0.00 0.00 0.00 0.00 0.00 0.00 0.00 0.00 0.00 0.00 0.00
0.00 0.00 0.00 0.00 0.00 0.00 0.00 0.00 0.00 0.00 0.00 0.00 0.00 0.00 0.00 0.00 0.00 0.00 0.00 0.00 0.00 0.00 0.00 0.00 0.00 0.00 0.00 0.00 0.00 0.00 0.00 0.00 0.00 0.00 0.00 0.00 0.00 0.00 0.00 0.00 0.00 0.00 0.00 0.00 0.00
0.00 0.00 0.00 0.00 0.00 0.00 0.00 0.00 0.00 0.00 0.00 0.00 0.00 0.00 0.00 0.00 0.00 0.00 0.00 0.00 0.00 0.00 0.00 0.00 0.00 0.00 0.00 0.00 0.00 0.00 0.00 0.00 0.00 0.00 0.00 0.00 0.00 0.00 0.00 0.00 0.00 0.00 0.00 0.00 0.00
0.00 0.00 0.00 0.00 0.00 0.00 0.00 0.00 0.00 0.00 0.00 0.00 0.00 0.00 0.00 0.00 0.00 0.00 0.00 0.00 0.00 0.00 0.00 0.00 0.00 0.00 0.00 0.00 0.00 0.00 0.00 0.00 0.00 0.00 0.00 0.00 0.00 0.00 0.00 0.00 0.00 0.00 0.00 0.00 0.00
0.00 0.00 0.00 0.00 0.00 0.00 0.00 0.00 0.00 0.00 0.00 0.00 0.00 0.00 0.00 0.00 0.00 0.00 0.00 0.00 0.00 0.00 0.00 0.00 0.00 0.00 0.00 0.00 0.00 0.00 0.00 0.00 0.00 0.00 0.00 0.00 0.00 0.00 0.00 0.00 0.00 0.00 0.00 0.00 0.00
0.00 0.00 0.00 0.00 0.00 0.00 0.00 0.00 0.00 0.00 0.00 0.00 0.00 0.00 0.00 0.00 0.00 0.00 0.00 0.00 0.00 0.00 0.00 0.00 0.00 0.00 0.00 0.00 0.00 0.00 0.00 0.00 0.00 0.00 0.00 0.00 0.00 0.00 0.00 0.00 0.00 0.00 0.00 0.00 0.00
0.00 0.00 0.00 0.00 0.00 0.00 0.00 0.00 0.00 0.00 0.00 0.00 0.00 0.00 0.00 0.00 0.00 0.00 0.00 0.00 0.00 0.00 0.00 0.00 0.00 0.00 0.00 0.00 0.00 0.00 0.00 0.00 0.00 0.00 0.00 0.00 0.00 0.00 0.00 0.00 0.00 0.00 0.00 0.00 0.00
0.00 0.00 0.00 0.00 0.00 0.00 0.00 0.00 0.00 0.00 0.00 0.00 0.00 0.00 0.00 0.00 0.00 0.00 0.00 0.00 0.00 0.00 0.00 0.00 0.00 0.00 0.00 0.00 0.00 0.00 0.00 0.00 0.00 0.00 0.00 0.00 0.00 0.00 0.00 0.00 0.00 0.00 0.00 0.00 0.00
0.00 0.00 0.00 0.00 0.00 0.00 0.00 0.00 0.00 0.00 0.00 0.00 0.00 0.00 0.00 0.00 0.00 0.00 0.00 0.00 0.00 0.00 0.00 0.00 0.00 0.00 0.00 0.00 0.00 0.00 0.00 0.00 0.00 0.00 0.00 0.00 0.00 0.00 0.00 0.00 0.00 0.00 0.00 0.00 0.00
0.00 0.01 0.01 0.00 0.00 0.00 0.00 0.00 0.00 0.00 0.00 0.00 0.00 0.00 0.00 0.00 0.00 0.00 0.00 0.00 0.00 0.00 0.00 0.00 0.00 0.00 0.00 0.00 0.00 0.00 0.00 0.00 0.00 0.00 0.00 0.00 0.00 0.00 0.00 0.00 0.00 0.00 0.00 0.00 0.00
0.00 0.00 0.00 0.00 0.00 0.00 0.00 0.00 0.00 0.00 0.00 0.00 0.00 0.00 0.00 0.00 0.00 0.00 0.00 0.00 0.00 0.00 0.00 0.00 0.00 0.00 0.00 0.00 0.00 0.00 0.00 0.00 0.00 0.00 0.00 0.00 0.00 0.00 0.00 0.00 0.00 0.00 0.00 0.00 0.00
0.00 0.00 0.00 0.00 0.00 0.00 0.00 0.00 0.00 0.00 0.00 0.00 0.00 0.00 0.00 0.00 0.00 0.00 0.00 0.00 0.00 0.00 0.00 0.00 0.00 0.00 0.00 0.00 0.00 0.00 0.00 0.00 0.00 0.00 0.00 0.00 0.00 0.00 0.00 0.00 0.00 0.00 0.00 0.00 0.00
0.00 0.00 0.00 0.00 0.00 0.00 0.00 0.00 0.00 0.00 0.00 0.00 0.00 0.00 0.00 0.00 0.00 0.00 0.00 0.00 0.00 0.00 0.00 0.00 0.00 0.00 0.00 0.00 0.00 0.00 0.00 0.00 0.00 0.00 0.00 0.00 0.00 0.00 0.00 0.00 0.00 0.00 0.00 0.00 0.00
0.00 0.00 0.00 0.00 0.00 0.00 0.00 0.00 0.00 0.00 0.00 0.00 0.00 0.00 0.00 0.00 0.00 0.00 0.00 0.00 0.00 0.00 0.00 0.00 0.00 0.00 0.00 0.00 0.00 0.00 0.00 0.00 0.00 0.00 0.00 0.00 0.00 0.00 0.00 0.00 0.00 0.00 0.00 0.00 0.00
0.00 0.00 0.00 0.00 0.00 0.00 0.00 0.00 0.00 0.00 0.00 0.00 0.00 0.00 0.00 0.00 0.00 0.00 0.00 0.00 0.00 0.00 0.00 0.00 0.00 0.00 0.00 0.00 0.00 0.00 0.00 0.00 0.00 0.00 0.00 0.00 0.00 0.00 0.00 0.00 0.00 0.00 0.00 0.00 0.00
0.00 0.00 0.00 0.00 0.00 0.00 0.00 0.00 0.00 0.00 0.00 0.00 0.00 0.00 0.01 0.00 0.00 0.00 0.00 0.00 0.00 0.00 0.00 0.00 0.00 0.00 0.00 0.00 0.00 0.00 0.00 0.00 0.00 0.00 0.00 0.00 0.00 0.00 0.00 0.00 0.00 0.00 0.00 0.00 0.00
0.00 0.00 0.00 0.00 0.00 0.00 0.00 0.00 0.00 0.00 0.00 0.00 0.00 0.00 0.01 0.02 0.00 0.00 0.00 0.00 0.00 0.00 0.00 0.00 0.00 0.00 0.00 0.00 0.00 0.00 0.00 0.00 0.00 0.00 0.00 0.00 0.00 0.00 0.00 0.00 0.00 0.00 0.00 0.00 0.00
0.00 0.00 0.00 0.00 0.00 0.00 0.00 0.00 0.00 0.00 0.00 0.00 0.00 0.00 0.00 0.01 0.00 0.00 0.00 0.00 0.00 0.00 0.00 0.00 0.00 0.00 0.00 0.00 0.00 0.00 0.00 0.00 0.00 0.00 0.00 0.00 0.00 0.00 0.00 0.00 0.00 0.00 0.00 0.00 0.00
0.00 0.00 0.00 0.00 0.00 0.00 0.00 0.00 0.00 0.00 0.00 0.00 0.00 0.00 0.00 0.00 0.00 0.00 0.00 0.00 0.00 0.00 0.00 0.00 0.00 0.00 0.00 0.00 0.00 0.00 0.00 0.00 0.00 0.00 0.00 0.00 0.00 0.00 0.00 0.00 0.00 0.00 0.00 0.00 0.00
0.00 0.00 0.00 0.00 0.00 0.00 0.00 0.00 0.00 0.00 0.00 0.00 0.00 0.01 0.00 0.00 0.00 0.00 0.00 0.01 0.00 0.00 0.00 0.00 0.00 0.00 0.00 0.00 0.00 0.00 0.00 0.00 0.00 0.00 0.00 0.00 0.00 0.00 0.00 0.00 0.00 0.00 0.00 0.00 0.00
MSLP
1015.63 1015.40 1015.09 1014.74 1014.42 1014.05 1013.68 1013.21 1012.74 1012.46 1012.12 1011.77 1011.42 1011.11 1010.79 1010.30 1009.58 1009.05 1007.83 1005.07 1004.95 1004.63 1004.74 1004.43 1004.54 1004.90 1005.44 1006.13 1006.40 1006.74 1007.47 1007.57 1007.19 1006.67 1005.76 1005.24 1005.25 1005.46 1005.65 1006.51 1007.13 1007.68 1008.51 1009.00 1010.56
1015.59 1015.30 1014.95 1014.64 1014.31 1014.02 1013.64 1013.23 1012.81 1012.27 1011.86 1011.53 1011.07 1010.73 1010.44 1010.11 1009.53 1007.90 1004.83 1004.64 1004.42 1004.36 1004.54 1004.57 1004.74 1004.99 1005.55 1006.16 1006.36 1006.64 1006.93 1006.39 1005.84 1005.30 1005.08 1005.02 1005.08 1005.24 1006.00 1006.76 1007.43 1008.33 1008.91 1009.54 1010.53
1015.56 1015.27 1014.91 1014.51 1014.10 1013.70 1013.43 1013.05 1012.68 1012.25 1011.76 1011.29 1010.88 1010.59 1010.13 1009.84 1008.80 1005.61 1004.49 1004.12 1004.34 1004.32 1004.52 1004.64 1004.70 1004.90 1005.23 1005.78 1006.03 1006.21 1006.05 1005.54 1004.95 1004.49 1004.44 1004.79 1005.24 1005.24 1006.00 1006.78 1007.03 1008.15 1009.28 1010.02 1010.76
1015.52 1015.24 1014.97 1014.62 1014.16 1013.69 1013.29 1012.92 1012.62 1012.22 1011.75 1011.26 1010.75 1010.30 1009.87 1009.69 1007.66 1004.91 1004.42 1003.88 1004.11 1004.33 1004.62 1004.58 1004.71 1004.86 1005.14 1005.24 1005.29 1005.60 1005.08 1004.78 1004.41 1004.05 1004.37 1004.68 1004.83 1005.22 1005.81 1005.95 1006.08 1007.66 1008.45 1009.71 1010.65
1015.51 1015.15 1014.80 1014.49 1014.18 1013.75 1013.22 1012.78 1012.43 1012.04 1011.64 1011.25 1010.81 1010.38 1009.85 1009.10 1006.37 1004.64 1004.56 1004.39 1004.55 1004.67 1004.70 1004.55 1004.64 1004.99 1005.04 1004.96 1004.88 1005.11 1004.66 1004.45 1003.63 1003.65 1003.82 1004.33 1004.75 1005.41 1006.07 1006.13 1006.54 1007.84 1008.75 1009.37 1009.97
1015.41 1015.09 1014.77 1014.37 1013.99 1013.58 1013.15 1012.69 1012.22 1011.82 1011.49 1011.08 1010.69 1010.43 1010.01 1008.17 1004.69 1004.55 1005.01 1004.94 1004.87 1004.85 1004.69 1004.64 1004.58 1004.72 1004.86 1004.87 1004.82 1004.13 1003.80 1003.88 1003.68 1003.68 1003.65 1004.17 1005.13 1005.51 1006.45 1006.56 1007.11 1007.93 1008.65 1009.21 1009.35
1015.16 1014.86 1014.56 1014.21 1013.85 1013.43 1012.96 1012.55 1012.08 1011.60 1011.16 1010.93 1010.78 1010.57 1009.61 1006.00 1004.49 1004.58 1004.59 1004.83 1004.86 1004.74 1004.71 1004.50 1004.42 1004.55 1004.66 1004.62 1004.42 1004.09 1004.07 1003.79 1003.94 1004.00 1004.14 1004.41 1005.55 1005.72 1006.02 1006.67 1007.30 1007.99 1008.58 1009.06 1009.55
1015.03 1014.63 1014.27 1013.93 1013.50 1013.07 1012.57 1011.96 1011.40 1010.88 1010.59 1010.57 1010.53 1010.34 1008.16 1004.92 1004.61 1004.56 1004.44 1004.40 1004.70 1004.72 1004.60 1004.32 1004.35 1004.61 1004.85 1004.56 1004.31 1004.46 1004.46 1004.49 1004.22 1004.16 1004.35 1004.70 1005.13 1005.78 1006.11 1006.57 1007.28 1008.00 1008.24 1008.52 1009.05
1014.90 1014.48 1014.12 1013.71 1013.31 1012.84 1012.16 1011.50 1010.73 1010.28 1010.18 1010.30 1010.37 1009.85 1006.95 1004.69 1004.69 1003.85 1003.99 1004.19 1004.29 1004.44 1004.30 1004.29 1004.51 1005.14 1005.24 1005.36 1005.53 1005.71 1005.44 1005.23 1004.78 1004.59 1004.99 1005.32 1005.05 1005.25 1006.11 1006.67 1007.08 1007.76 1007.87 1008.20 1008.69
1014.99 1014.53 1014.03 1013.49 1013.10 1012.65 1011.81 1010.72 1010.39 1010.30 1010.32 1010.35 1010.09 1009.81 1006.54 1005.13 1004.37 1003.86 1003.84 1003.89 1004.15 1004.42 1004.50 1004.66 1005.35 1005.78 1006.12 1006.33 1006.60 1006.41 1005.96 1005.53 1005.33 1004.87 1005.24 1005.50 1005.26 1005.45 1006.32 1006.61 1007.07 1007.50 1007.63 1008.00 1008.17
1014.97 1014.57 1014.04 1013.50 1013.01 1012.50 1011.68 1010.94 1010.79 1010.65 1010.16 1009.06 1008.60 1007.92 1006.38 1005.21 1004.26 1003.89 1003.73 1003.90 1004.14 1004.75 1005.19 1005.42 1006.12 1006.15 1006.07 1006.17 1006.11 1006.02 1006.01 1005.71 1004.78 1004.68 1004.83 1004.96 1005.38 1005.33 1006.06 1006.60 1006.92 1007.22 1007.52 1007.63 1007.60
1014.85 1014.36 1013.84 1013.49 1012.89 1012.31 1012.08 1011.70 1011.47 1011.66 1010.24 1008.11 1007.58 1007.09 1006.10 1005.73 1005.49 1004.03 1003.66 1004.11 1004.49 1005.28 1005.64 1006.11 1005.99 1005.78 1005.71 1005.86 1005.81 1005.91 1005.85 1005.49 1004.50 1003.91 1004.43 1004.57 1005.17 1005.18 1005.68 1005.68 1006.15 1006.54 1007.07 1007.17 1007.31
1014.71 1014.18 1013.64 1013.16 1012.56 1012.51 1012.58 1011.61 1011.22 1011.18 1010.80 1007.55 1006.71 1006.13 1005.38 1005.43 1004.97 1004.02 1003.77 1004.05 1004.79 1005.57 1005.93 1006.20 1005.82 1005.51 1005.51 1005.56 1005.57 1005.64 1005.78 1005.49 1005.50 1004.77 1004.91 1005.27 1005.80 1005.56 1005.08 1005.38 1005.81 1005.98 1006.32 1006.71 1006.80
1014.58 1014.11 1013.70 1013.10 1012.84 1013.23 1012.16 1011.21 1011.07 1011.12 1010.29 1007.35 1005.87 1004.66 1004.71 1004.60 1004.02 1003.14 1003.32 1003.79 1004.71 1005.16 1006.15 1006.05 1005.35 1005.15 1005.07 1005.08 1005.34 1005.53 1005.20 1005.39 1005.62 1005.88 1006.07 1006.03 1006.54 1005.77 1005.34 1005.52 1005.50 1005.59 1006.01 1006.00 1006.26
1014.33 1013.99 1013.85 1013.72 1013.74 1013.19 1011.58 1011.14 1010.73 1010.82 1009.30 1006.05 1004.78 1003.81 1003.99 1004.17 1003.22 1002.95 1002.79 1003.25 1004.28 1005.02 1005.69 1005.39 1005.09 1004.92 1004.87 1004.65 1005.01 1005.42 1005.13 1005.62 1005.85 1006.51 1007.00 1007.01 1007.36 1005.73 1005.50 1005.11 1004.75 1004.82 1005.03 1005.03 1005.40
1014.09 1013.85 1013.67 1013.67 1013.63 1011.79 1011.28 1011.04 1010.73 1010.57 1008.14 1005.60 1004.38 1004.06 1004.29 1003.80 1003.18 1002.88 1002.96 1003.07 1003.86 1004.75 1005.28 1005.18 1004.62 1004.43 1003.96 1004.26 1004.50 1005.15 1005.75 1006.43 1007.17 1007.84 1008.29 1008.08 1008.06 1006.22 1005.56 1004.58 1003.89 1003.67 1004.03 1004.08 1004.83
1013.45 1013.25 1013.44 1013.09 1012.22 1011.45 1011.36 1011.04 1011.05 1009.76 1007.37 1006.09 1005.07 1004.40 1004.34 1003.98 1003.47 1002.93 1003.38 1003.79 1004.27 1005.24 1005.56 1005.37 1004.74 1004.03 1003.79 1004.29 1004.72 1005.22 1006.59 1007.73 1008.71 1009.16 1009.36 1008.55 1008.14 1005.83 1004.48 1003.83 1003.30 1003.08 1003.12 1003.12 1003.72
1012.82 1012.43 1012.21 1012.12 1011.72 1011.74 1011.59 1011.28 1011.02 1009.06 1007.75 1006.37 1005.45 1004.76 1004.49 1003.96 1003.70 1003.59 1003.86 1004.56 1004.89 1005.23 1006.36 1006.02 1005.13 1003.95 1003.44 1003.75 1004.19 1005.29 1006.57 1008.00 1008.99 1009.92 1009.68 1008.86 1007.46 1004.96 1003.71 1003.02 1003.01 1002.97 1002.78 1002.85 1003.16
1012.29 1012.30 1012.18 1011.27 1011.57 1011.89 1011.58 1011.63 1010.44 1009.19 1007.84 1007.03 1005.91 1005.33 1004.80 1004.12 1003.85 1003.94 1004.33 1004.76 1004.81 1005.11 1005.74 1005.98 1005.05 1003.59 1003.14 1003.02 1003.68 1005.46 1006.33 1006.65 1008.71 1010.20 1009.99 1008.75 1006.89 1004.54 1003.42 1003.17 1002.85 1002.70 1002.59 1002.38 1002.74
1012.65 1012.29 1011.89 1011.35 1011.45 1011.67 1011.66 1011.48 1010.34 1009.04 1007.93 1007.26 1007.02 1006.42 1005.90 1004.90 1004.51 1004.53 1004.47 1003.74 1004.11 1004.37 1004.43 1005.45 1005.18 1003.81 1002.94 1002.88 1003.61 1004.09 1005.05 1006.85 1008.37 1009.78 1010.13 1009.12 1007.61 1005.44 1003.91 1003.23 1002.99 1002.64 1002.33 1002.05 1002.53
1012.53 1012.29 1011.94 1011.60 1011.74 1011.70 1012.24 1011.56 1010.04 1008.58 1007.96 1007.48 1007.14 1006.86 1006.35 1005.69 1004.85 1004.47 1004.02 1003.31 1002.98 1003.76 1004.39 1005.26 1005.73 1004.84 1003.94 1003.44 1003.63 1004.55 1005.23 1006.73 1008.04 1008.74 1009.26 1008.99 1007.52 1004.54 1003.63 1003.15 1002.63 1002.27 1002.03 1002.07 1002.26
1012.76 1012.68 1012.15 1012.16 1012.16 1012.72 1012.18 1011.00 1009.65 1008.23 1007.59 1007.37 1007.02 1006.68 1006.15 1005.61 1004.92 1004.21 1003.42 1002.26 1001.58 1002.61 1004.32 1004.68 1005.33 1005.75 1004.81 1003.52 1003.38 1003.68 1004.46 1005.70 1007.45 1008.78 1008.99 1008.02 1005.53 1003.47 1002.92 1002.68 1002.56 1001.97 1001.92 1001.98 1002.11
1013.60 1013.16 1012.29 1012.20 1012.53 1012.64 1011.64 1010.61 1009.49 1008.24 1007.31 1006.97 1006.49 1005.89 1005.64 1005.52 1005.19 1003.71 1002.66 1001.18 1001.71 1002.10 1002.99 1004.04 1005.32 1005.77 1004.98 1004.24 1003.88 1003.70 1004.21 1005.01 1005.95 1006.99 1007.98 1007.64 1004.89 1003.32 1003.18 1002.81 1002.02 1002.05 1001.67 1002.07 1002.52
1014.04 1013.60 1013.01 1012.67 1012.64 1012.29 1011.68 1010.51 1009.32 1007.82 1007.17 1006.46 1005.94 1005.50 1005.49 1005.26 1004.47 1003.73 1002.74 1001.53 1001.27 1001.47 1001.69 1002.71 1004.52 1004.98 1004.78 1004.09 1003.30 1003.38 1003.77 1004.40 1005.08 1006.56 1006.79 1006.11 1004.58 1003.62 1003.06 1002.69 1002.18 1001.66 1001.64 1002.15 1002.64
1014.07 1013.83 1013.31 1013.02 1012.61 1012.13 1011.48 1010.56 1009.42 1008.29 1006.95 1006.18 1005.73 1005.38 1005.21 1005.14 1004.21 1003.68 1002.84 1002.13 1001.44 1001.41 1002.16 1002.25 1004.18 1004.52 1004.00 1003.50 1003.14 1002.83 1002.94 1003.60 1004.37 1004.54 1005.14 1004.39 1004.66 1002.79 1002.49 1002.04 1001.39 1001.46 1001.78 1002.01 1002.47
1014.44 1014.20 1013.54 1013.01 1012.36 1011.88 1011.33 1010.36 1009.32 1008.22 1007.44 1006.32 1005.70 1005.04 1004.92 1004.91 1003.43 1003.17 1003.09 1002.87 1002.97 1002.54 1002.81 1002.89 1003.78 1004.25 1004.27 1003.62 1003.12 1002.77 1002.57 1002.90 1003.37 1003.67 1003.94 1003.89 1003.76 1002.75 1001.99 1001.70 1001.44 1001.17 1001.68 1001.76 1001.82
1014.73 1014.23 1013.92 1013.12 1012.54 1011.99 1010.93 1009.72 1008.86 1008.28 1006.88 1006.19 1005.69 1005.40 1004.45 1003.85 1003.45 1002.56 1003.03 1003.13 1003.63 1003.60 1003.80 1003.98 1004.07 1004.89 1004.79 1003.86 1003.52 1003.36 1002.43 1002.37 1002.69 1002.96 1003.15 1003.32 1003.01 1002.79 1002.25 1001.87 1001.27 1001.05 1001.03 1000.84 1000.86
Thickness
5739 5742 5747 5751 5755 5759 5764 5769 5773 5776 5780 5785 5789 5792 5795 5801 5807 5812 5815 5843 5848 5855 5855 5854 5849 5845 5840 5827 5831 5827 5790 5784 5793 5796 5811 5831 5821 5831 5835 5819 5821 5820 5809 5811 5802
5736 5739 5743 5747 5752 5756 5761 5766 5771 5776 5780 5784 5789 5793 5796 5799 5804 5811 5846 5848 5854 5856 5849 5842 5834 5837 5823 5819 5820 5808 5791 5801 5820 5824 5819 5825 5822 5826 5818 5812 5809 5805 5809 5809 5801
5733 5737 5741 5745 5750 5755 5759 5764 5769 5774 5779 5784 5788 5791 5796 5800 5808 5827 5846 5853 5852 5854 5851 5847 5842 5835 5822 5821 5818 5811 5798 5818 5827 5837 5836 5824 5822 5833 5815 5804 5815 5803 5800 5800 5794
5730 5733 5737 5741 5745 5751 5756 5761 5765 5771 5777 5783 5788 5792 5796 5798 5793 5836 5847 5853 5852 5852 5845 5840 5834 5824 5815 5814 5826 5808 5825 5829 5833 5840 5832 5823 5833 5824 5821 5825 5835 5819 5813 5802 5793
5725 5729 5733 5737 5741 5746 5752 5757 5762 5768 5774 5779 5784 5789 5795 5793 5805 5840 5843 5846 5846 5842 5835 5832 5827 5819 5811 5818 5823 5813 5822 5829 5841 5840 5838 5836 5826 5821 5819 5829 5832 5821 5814 5806 5801
5722 5725 5729 5733 5737 5742 5747 5753 5759 5764 5770 5777 5782 5785 5789 5782 5838 5839 5837 5838 5837 5835 5832 5831 5827 5828 5818 5815 5815 5832 5832 5831 5837 5833 5838 5826 5820 5824 5817 5827 5823 5818 5812 5809 5808
5719 5722 5726 5729 5734 5738 5743 5748 5754 5761 5767 5772 5777 5781 5784 5800 5838 5837 5838 5833 5835 5833 5825 5833 5836 5826 5824 5815 5832 5832 5817 5826 5826 5829 5826 5830 5809 5810 5822 5824 5818 5815 5813 5811 5808
5715 5720 5723 5727 5731 5737 5742 5749 5755 5761 5766 5769 5773 5778 5783 5828 5834 5832 5834 5831 5832 5833 5831 5836 5838 5827 5820 5829 5823 5811 5810 5791 5818 5826 5826 5825 5787 5812 5823 5822 5815 5813 5812 5812 5809
5712 5716 5720 5724 5729 5734 5741 5748 5756 5760 5764 5766 5769 5775 5781 5826 5819 5834 5835 5825 5828 5830 5832 5836 5830 5813 5816 5798 5783 5787 5776 5787 5798 5822 5816 5813 5800 5821 5825 5821 5815 5812 5814 5812 5807
5706 5710 5715 5722 5727 5732 5740 5750 5755 5757 5758 5760 5765 5764 5795 5801 5820 5830 5833 5832 5822 5821 5816 5815 5798 5788 5783 5776 5752 5769 5774 5785 5784 5811 5809 5802 5804 5818 5818 5819 5816 5813 5814 5809 5807
5701 5705 5711 5717 5723 5729 5738 5744 5748 5749 5752 5758 5765 5768 5786 5802 5820 5819 5827 5821 5819 5805 5785 5797 5780 5769 5785 5789 5789 5790 5784 5782 5802 5816 5808 5806 5807 5815 5816 5816 5814 5812 5809 5807 5809
5697 5703 5709 5713 5719 5726 5730 5738 5736 5734 5734 5762 5765 5768 5781 5791 5784 5806 5821 5804 5799 5778 5787 5781 5769 5790 5793 5793 5793 5789 5785 5783 5805 5822 5813 5812 5805 5817 5817 5820 5821 5818 5811 5810 5810
5693 5699 5705 5711 5717 5720 5719 5731 5732 5733 5727 5754 5764 5766 5774 5783 5779 5790 5807 5800 5789 5776 5775 5763 5784 5793 5792 5790 5787 5785 5783 5786 5787 5805 5813 5805 5793 5804 5821 5822 5822 5824 5823 5818 5813
5689 5694 5699 5706 5711 5707 5719 5728 5729 5729 5712 5741 5757 5771 5775 5778 5777 5802 5808 5800 5786 5774 5771 5775 5791 5792 5788 5786 5786 5770 5798 5798 5793 5786 5765 5796 5755 5792 5807 5810 5818 5822 5819 5820 5817
5685 5689 5692 5695 5697 5701 5721 5723 5728 5727 5691 5755 5760 5785 5775 5767 5784 5787 5805 5796 5775 5777 5775 5774 5780 5781 5779 5788 5795 5784 5807 5799 5794 5780 5778 5777 5759 5784 5800 5807 5816 5821 5823 5828 5825
5682 5685 5688 5690 5692 5708 5714 5717 5721 5698 5690 5736 5759 5754 5754 5763 5772 5780 5783 5796 5790 5776 5777 5777 5794 5790 5794 5799 5799 5803 5792 5779 5769 5759 5743 5763 5758 5772 5792 5810 5825 5832 5831 5835 5828
5683 5685 5685 5687 5697 5705 5707 5713 5684 5677 5725 5727 5734 5746 5742 5743 5756 5765 5759 5758 5751 5739 5747 5770 5777 5796 5804 5786 5794 5786 5763 5729 5735 5729 5732 5756 5756 5777 5815 5824 5831 5837 5838 5841 5838
5683 5687 5689 5691 5695 5696 5700 5693 5675 5698 5701 5722 5731 5730 5725 5738 5743 5750 5744 5735 5753 5749 5726 5734 5736 5780 5801 5790 5781 5776 5763 5727 5724 5719 5737 5753 5758 5790 5823 5835 5836 5839 5842 5846 5844
5683 5684 5684 5692 5690 5688 5692 5662 5671 5685 5707 5704 5714 5709 5716 5735 5737 5740 5733 5729 5744 5751 5739 5727 5743 5788 5797 5802 5797 5772 5757 5778 5732 5725 5727 5743 5773 5810 5823 5825 5832 5835 5841 5846 5846
5676 5681 5687 5687 5687 5686 5674 5661 5674 5688 5700 5700 5692 5702 5697 5713 5725 5721 5719 5747 5750 5756 5766 5753 5743 5780 5797 5802 5797 5788 5791 5756 5738 5726 5729 5733 5749 5764 5805 5823 5830 5834 5838 5846 5846
5674 5682 5680 5680 5679 5677 5657 5656 5674 5690 5697 5693 5692 5694 5698 5705 5718 5712 5726 5748 5760 5753 5758 5747 5742 5755 5778 5776 5770 5771 5765 5755 5750 5738 5726 5721 5740 5795 5808 5820 5826 5836 5842 5843 5844
5666 5670 5672 5670 5664 5644 5653 5663 5680 5688 5698 5695 5697 5696 5702 5709 5711 5713 5724 5751 5771 5760 5743 5753 5735 5727 5747 5782 5790 5788 5776 5764 5739 5744 5729 5735 5753 5820 5821 5826 5828 5834 5839 5842 5846
5658 5659 5665 5665 5649 5645 5656 5666 5675 5681 5688 5692 5694 5702 5710 5708 5705 5722 5733 5765 5760 5759 5747 5748 5723 5713 5732 5758 5771 5774 5773 5768 5756 5747 5730 5734 5768 5816 5813 5819 5830 5830 5839 5837 5839
5652 5654 5654 5653 5646 5652 5654 5659 5664 5686 5685 5697 5698 5707 5705 5702 5713 5720 5733 5757 5767 5768 5772 5764 5721 5732 5723 5747 5771 5774 5775 5769 5767 5740 5736 5746 5775 5801 5812 5813 5824 5832 5837 5836 5833
5649 5651 5649 5645 5646 5648 5654 5654 5657 5663 5685 5694 5694 5701 5707 5698 5711 5720 5728 5741 5759 5766 5758 5761 5736 5735 5752 5763 5772 5784 5784 5767 5767 5768 5762 5780 5767 5801 5809 5816 5830 5832 5835 5833 5830
5648 5646 5643 5644 5646 5648 5643 5649 5655 5665 5671 5681 5687 5702 5705 5695 5722 5721 5727 5732 5734 5749 5751 5746 5739 5738 5747 5756 5766 5772 5781 5775 5778 5772 5774 5778 5775 5804 5815 5820 5825 5832 5829 5829 5831
5634 5638 5641 5643 5644 5643 5645 5653 5660 5665 5678 5685 5691 5690 5700 5713 5723 5737 5734 5729 5729 5738 5733 5735 5729 5724 5729 5750 5752 5741 5768 5775 5780 5784 5787 5778 5793 5801 5808 5815 5821 5826 5830 5835 5838